www.pogodaiklimat.ru

Погода и климат >> Архив погоды >> Россия >> Магаданская область >> Остров Спафарьева


ПОГОДА на Острове Спафарьева

  • Прогноз погоды на Острове Спафарьева
  • Монитор погоды на Острове Спафарьева

АРХИВ ПОГОДЫ на Острове Спафарьева

Время (UTC), дата Ветер
(напр.,м/с)
 
Видим.   Явления Облачность Т
(С)
Тd
(С)
f
(%)
Тe
(С)
Тes
(С)
Комфортность P
(гПа)
Po
(гПа)
Тmin
(С)
Tmax
(С)
R
(мм)
R24
(мм)
S
(см)
03 20.05 СЗ 4
{12}
50 км 3/1 600 м
[Sc Ac trans]
+8.0 -1.0 53 +5 +12 1003.6 997.3
06 20.05 ЮВ 1 50 км 1/1 600 м
[Sc]
+8.8 -1.3 49 +9 +16 1006.3 1000.0
09 20.05 С 3 50 км 1/1 600 м
[Sc]
+7.2 -0.6 58 +5 +5 1010.5 1004.0 +9.9
12 20.05 С 2 50 км 1/0
[Ci fib]
+3.6 +0.3 79 +1 +1 1012.9 1006.5
15 20.05 СВ 7-11
{12}
50 км ясно +5.1 -1.8 61 0 0 1015.4 1008.9
18 20.05 В 6-10
{12}
50 км ясно +4.8 -2.8 58 0 0 1017.5 1011.0
21 20.05 В 5
{10}
50 км ясно +5.4 -0.7 65 +1 +3 1019.5 1013.0 +3.3
00 21.05 ЮВ 5 50 км 9/1 300 м
[St Ci fib]
+5.3 +2.5 82 +1 +5 1020.6 1014.2
03 21.05 ЮВ 3 50 км 9/0
[Cs]
+6.2 +1.9 74 +3 +12 опасность
простуды
1021.5 1015.1
06 21.05 ЮВ 3 50 км 9/0
[Cs]
+5.0 +0.9 75 +2 +6 1021.1 1014.6
09 21.05 В 6-10
{10}
50 км 10/0
[As trans]
+4.1 +0.2 76 -1 -1 1020.9 1014.4 +7.3
12 21.05 В 6
{12}
50 км 10/0
[As trans]
+3.8 +0.1 77 -2 -2 1020.4 1013.9
15 21.05 В 9-13
{13}
50 км 10/0
[As trans]
+6.8 -0.7 59 +2 +2 1018.2 1011.8
18 21.05 В 11-15
{17}
50 км 10/6 600 м
[Cb cap As op]
+5.7 0.0 67 -0 -0 1017.1 1010.6
21 21.05 В 13-19
{19}
50 км 10/10 600 м
[Cb cap]
+6.0 +0.3 67 -0 -0 1014.3 1007.8 +3.3
00 22.05 В 18-25
{25}
2000 м ливневой дождь 10/10 600 м
[Cb cap]
+3.1 +2.2 94 -6 -6 1012.9 1006.5 +2.8
03 22.05 В 16-22
{23}
4000 м ливневой дождь 10/10 600 м
[Cb cap]
+2.9 +2.3 96 -6 -6 1010.6 1004.1
06 22.05 ЮВ 14-25
{26}
4000 м ливневой дождь 10/10 600 м
[Cb cap]
+2.7 +2.1 96 -6 -6 1007.3 1000.9
09 22.05 ЮВ 15-20
{25}
4000 м ливневой дождь 10/10 200 м
[Cb cap]
+2.5 +2.1 97 -6 -6 1008.2 1001.8 +5.9 26
12 22.05 ЮВ 9-14
{21}
2000 м ливневой дождь 10/10 200 м
[Cb cap]
+2.5 +2.1 97 -5 -5 1009.4 1002.9
15 22.05 ЮВ 10-13
{15}
200 м слаб. ливневой дождь {туман} туман ?/? +2.4 +2.1 98 -5 -5 1009.5 1003.0
18 22.05 В 7-11
{13}
200 м слаб. ливневой дождь {туман} туман ?/? +2.1 +1.8 98 -5 -5 1009.3 1002.8
21 22.05 В 11-14
{15}
500 м слаб. ливневой дождь {туман} туман ?/? +2.3 +2.0 98 -6 -6 1007.5 1001.0 +2.1 11
00 23.05 В 11-15
{16}
2000 м слаб. ливневой дождь {туман} туман 10/10 200 м
[Cb cap]
+2.3 +2.0 98 -6 -6 1005.2 998.7
03 23.05 В 10-15
{17}
2000 м ливневой дождь 10/10 200 м
[Cb cap]
+2.4 +2.1 98 -5 -5 1002.2 995.7
06 23.05 ЮВ 10-13
{16}
2000 м ливневой дождь 10/10 200 м
[Cb cap]
+1.7 +1.1 96 -6 -6 1000.0 993.6
09 23.05 В 6
{12}
10 км слаб. ливневой снег 10/10 200 м
[Cb cap]
+1.0 +0.7 98 -6 -6 1000.2 993.8 +2.6 17
12 23.05 ЮВ 5 200 м туман {ливн. осадки} ?/? +1.4 +1.1 98 -5 -5 1001.5 995.1
15 23.05 ЮВ 3 200 м туман ?/? +1.7 +1.4 98 -3 -3 1002.6 996.1
18 23.05 ЮВ 5 200 м слаб. ливневой дождь {туман} туман ?/? +1.5 +1.2 98 -4 -4 1002.8 996.3
21 23.05 ЮВ 6
{10}
2000 м слаб. ливневой дождь {туман} туман 10/10 200 м
[Cb cap]
+1.2 +0.9 98 -5 -5 1003.4 996.9 +1.0 2
00 24.05 ЮВ 7-11
{11}
50 м туман {ливн. осадки} ?/? +1.3 +1.0 98 -6 -6 1003.3 996.8
03 24.05 В 7-11
{12}
50 м слаб. ливневой дождь {туман} туман ?/? +1.2 +0.9 98 -6 -6 1003.8 997.3
06 24.05 ЮВ 7-11
{11}
4000 м ливневой дождь {туман} 10/10 200 м
[Cb cap]
+1.4 +1.1 98 -6 -6 1003.6 997.1
09 24.05 В 9-12
{12}
10 км слаб. ливневой дождь 10/10 200 м
[Cb cap]
+1.5 +1.0 96 -6 -6 1003.9 997.5 +1.6 11
12 24.05 В 5
{12}
2000 м слаб. ливневой дождь туман 10/10 200 м
[Cb cap]
+1.4 +1.0 97 -5 -5 1004.6 998.1
15 24.05 В 7 2000 м слаб. ливневой дождь туман 10/10 200 м
[Cb cap]
+1.4 +0.8 96 -5 -5 1004.7 998.2
18 24.05 ЮВ 5
{13}
4000 м слаб. ливневой дождь туман 10/10 200 м
[Cb cap]
+1.2 +0.8 97 -5 -5 1004.7 998.2
21 24.05 В 8-11
{12}
10 км слаб. ливневой дождь 10/10 200 м
[Cb cap]
+1.3 +0.7 96 -6 -6 1004.6 998.1 +1.1 4
00 25.05 В 7-10
{12}
1000 м слаб. ливневой дождь 10/10 200 м
[Cb cap]
+1.6 +1.2 97 -5 -5 1005.0 998.5
03 25.05 В 8-11
{12}
2000 м слаб. ливневой дождь 10/10 200 м
[Cb cap]
+1.7 +1.3 97 -6 -6 1004.3 997.8
06 25.05 С 1
{11}
500 м туман {ливн. осадки} ?/? +2.1 +1.7 97 0 0 1004.6 998.1
09 25.05 Ю 1 200 м туман {ливн. осадки} ?/? +2.0 +1.6 97 0 0 1004.8 998.3 +2.8 1
12 25.05 ЮВ 1 500 м слаб. ливневой дождь {туман} туман ?/? +2.3 +1.8 96 0 0 1005.0 998.5
15 25.05 СЗ 1 200 м туман {ливн. осадки} ?/? +2.2 +1.8 97 0 0 1004.9 998.4
18 25.05 СЗ 2 200 м туман {ливн. осадки} ?/? +2.6 +2.3 98 -1 -1 1004.6 998.2
21 25.05 СЗ 3 200 м туман ?/? +3.1 +2.8 98 -1 -1 1004.9 998.5 +1.9 0.7
00 26.05 С 3 200 м туман {ливн. осадки} ?/? +4.1 +3.8 98 0 0 1005.4 999.0
03 26.05 СЗ 3 4000 м туман местами 10/10 200 м
[Cb cap]
+5.3 +5.0 98 +2 +2 1005.7 999.3
06 26.05 С 3 50 км {туман} 10/10 200 м
[Cb cap]
+5.0 +4.4 96 +1 +1 1006.2 999.8
09 26.05 С 4 10 км слаб. ливневой дождь 10/10 600 м
[Cb cap]
+4.3 +3.3 93 -0 -0 1007.2 1000.7 +6.0 0.9
12 26.05 С 3 10 км слаб. ливневой дождь 10/10 600 м
[Cb cap]
+4.4 +3.4 93 +1 +1 1008.3 1001.9
15 26.05 С 3 10 км слаб. ливневой дождь 10/10 600 м
[Cb cap]
+3.2 +2.6 96 -1 -1 1008.9 1002.5
18 26.05 С 2 10 км слаб. ливневой дождь 10/10 600 м
[Cb cap]
+3.6 +3.0 96 +1 +1 1009.7 1003.2
21 26.05 штиль 0 50 км в посл. час ливневой дождь 10/10 600 м
[Cb cap]
+4.7 +3.8 94 +4 +4 1011.2 1004.8 +3.2 2
00 27.05 СЗ 3 50 км {ливн. осадки} 9/9 300 м
[St]
+5.1 +4.2 94 +1 +2 1012.0 1005.6

 

Местоположение метеостанции Остров Спафарьева (Магаданская область, Россия): широта 59.15 долгота 149.00 высота над уровнем моря 52 м.

В архиве по умолчанию представлена погода на Острове Спафарьева за последнюю неделю. Архивные данные за месяц целиком и за предыдущие месяцы, начиная с января 2011 года, Вы можете получить, выбрав интересующий диапазон дат из раскрывающегося списка и нажав кнопку "Ввод!".


*Определитесь, кто Вы:
робот инопланетянин человек

Внимание! Время в таблицах - всемирное. Для получения местного времени необходимо прибавить поправку, которая равна 11 ч.

Смотрите также архив погоды в соседних городах и на ближайших метеорологических станциях:

Погода в Талоне (Магаданская область, Россия) (72 км)
Погода в Армани (Магаданская область, Россия) (84 км)
Погода в Нагаева (Магаданская область, Россия) (106 км)
Погода в Магадане (Магаданская область, Россия) (106 км)
Погода в Оле (Магаданская область, Россия) (133 км)
Погода на Мысе Алевина (Магаданская область, Россия) (137 км)
Погода в Палатке (Магаданская область, Россия) (150 км)
Погода в Мадауне (Магаданская область, Россия) (187 км)
Погода в Усть-Омчуге (Магаданская область, Россия) (222 км)
Погода на Мысе Братьев (Магаданская область, Россия) (245 км)

Пояснения к столбцам:

Ветер - указаны скорость ветра в м/с - средняя за 10 мин, порывы в срок и между сроками (в фигурных скобках) и направление, откуда дует ветер: С - северный, СВ - северо-восточный, В - восточный, ЮВ - юго-восточный, Ю - южный, ЮЗ - юго-западный, З - западный, СЗ - северо-западный.
Видимость - горизонтальная дальность видимости в метрах или километрах. При видимости от 1 до 10 км при отсутствии осадков обычно наблюдается дымка, при ухудшении видимости до 1 км и менее - туман. В сухую погоду видимость может ухудшаться дымом, пылью или мглою.
Явления - указаны атмосферные явления, наблюдавшиеся в срок или в последний час перед сроком; фигурными скобками обозначены явления, наблюдавшиеся между сроками (за 1-3 часа до срока); квадратными скобками обозначены град или гололедные отложения с указанием их диаметра в мм.
Облачность - указаны через наклонную черту общая и нижняя облачность в баллах и высота нижней границы облаков в метрах; квадратными скобками обозначены формы облаков: Ci - перистые, Cs - перисто-слоистые, Cc - перисто-кучевые, Ac - высококучевые, As - высокослоистые, Sc - слоисто-кучевые, Ns - слоисто-дождевые, Cu - кучевые, Cb - кучево-дождевые. Подробнее классификацию облаков см. в Атласе облаков (PDF).
T - Температура воздуха - температура, измеренная на высоте 2 м над землей.
Td - Температура точки росы - температура, при понижении до которой содержащийся в воздухе водяной пар достигнет насыщения.
f - Относительная влажность воздуха - влажноcть воздуха, измеренная на высоте 2 м над землей.
Te - Эффективная температура - температура, которую ощущает одетый по сезону человек в тени. Характеристика душности погоды. При расчете учитывается влияние влажности воздуха и скорости ветра на теплоощущения человека.
Tes - Эффективная температура на солнце - температура, которую ощущает человек, с поправкой на солнечный нагрев. Характеристика знойности погоды. Зависит от высоты солнца над горизонтом, облачности и скорости ветра. Ночью, в пасмурную погоду, а также при ветре 12 м/с и более поправка равна нулю.
P - Атмосферное давление - приведенное к уровню моря атмосферное давление.
Po - Атмосферное давление - измеренное на уровне метеостанции атмосферное давление.
Tmin - Минимальная температура - минимум температуры воздуха на высоте 2 м над землей.
Tmax - Максимальная температура - максимум температуры воздуха на высоте 2 м над землей.
R - Количество осадков - Количество выпавших осадков за период времени, мм. При наведении курсора мыши на число - период времени, за который выпало указанное количество осадков.
R24 - Количество осадков - Количество выпавших осадков за 24 часа, мм.
S - Снежный покров - Высота снежного покрова, см. При наведении курсора мыши на число - состояние снежного покрова и степень покрытия местности в баллах.